Wind_Speed
19 19 19 20 20 21 23 23 24 24 23 22 22 24 24 24 25 26 26 27 29 30 30 31 31 32 33 33 34 35 36 36 38 40 41 40 41 40 40 40 41 40 40 41
19 19 19 20 20 21 22 24 25 25 24 22 23 23 24 24 25 24 25 25 26 28 28 29 30 31 33 33 34 34 35 36 36 38 39 39 40 40 39 39 39 40 40 39
20 20 20 20 19 20 22 23 24 24 24 23 23 23 23 24 25 24 23 24 25 25 26 27 28 31 32 33 34 34 35 35 36 36 37 38 37 37 37 38 39 39 38 38
22 22 21 21 21 21 22 22 23 23 22 22 22 23 24 24 25 24 24 24 24 25 26 27 28 30 31 32 33 34 35 35 35 35 35 35 35 36 36 36 36 37 37 37
23 23 23 22 22 22 23 22 23 23 22 23 23 23 23 24 25 25 25 25 25 25 26 27 27 28 30 30 31 32 33 33 33 33 33 33 34 34 35 35 35 35 35 35
24 24 24 23 23 23 23 23 23 23 23 23 24 24 23 23 24 24 24 24 25 26 27 28 28 28 28 28 29 30 31 31 31 31 31 31 31 32 32 32 32 32 32 32
24 24 24 24 24 23 24 25 24 24 24 23 24 24 24 24 24 24 24 25 25 25 25 26 27 27 28 29 29 30 30 30 31 30 30 29 29 30 30 30 31 31 31 31
24 24 24 25 24 25 26 26 25 25 25 25 25 25 25 25 26 26 26 26 25 26 26 26 26 27 27 28 28 29 29 30 30 31 30 29 29 29 29 30 30 30 31 31
25 25 25 26 26 26 27 27 26 26 25 25 25 25 25 25 25 26 27 27 27 27 27 27 27 28 28 28 27 28 28 29 30 30 30 30 30 30 29 30 30 30 30 30
25 25 27 27 27 27 28 28 27 26 26 25 26 26 26 25 25 25 26 26 27 27 27 27 28 29 29 29 28 29 30 30 30 30 30 30 30 30 30 29 30 30 30 30
27 27 28 28 28 28 28 28 28 27 27 27 26 26 27 27 27 26 26 26 27 27 27 27 28 28 29 29 29 29 30 30 30 30 30 30 30 30 29 29 29 29 29 30
28 28 29 28 28 29 29 29 29 28 28 28 28 27 27 27 27 27 27 27 28 28 28 28 28 28 29 29 29 29 29 29 30 30 30 29 29 29 29 29 29 29 29 29
29 29 29 29 29 29 29 28 28 28 28 28 28 28 28 28 28 28 28 28 28 29 29 29 29 28 28 28 28 28 27 28 28 28 28 28 28 28 28 28 28 28 27 27
28 29 29 29 28 28 29 28 28 28 28 28 28 27 27 27 28 28 28 28 29 29 29 29 28 28 27 26 25 25 25 25 25 25 26 26 26 26 26 26 26 26 26 26
27 27 26 26 26 26 27 27 27 26 27 26 26 27 27 27 28 28 28 28 28 28 28 28 27 26 25 25 24 24 24 24 23 23 23 24 24 24 24 25 25 25 25 25
25 25 25 25 25 25 26 26 25 25 25 26 26 26 27 28 28 29 29 29 28 27 26 26 25 24 24 23 23 23 22 23 22 22 22 22 22 22 22 22 21 21 22 23
25 25 25 25 25 25 25 25 25 25 26 27 27 27 28 29 29 29 28 28 27 26 24 23 22 22 21 20 20 20 20 20 20 20 20 19 19 19 19 19 19 19 20 20
25 25 26 26 25 26 25 24 24 25 27 28 29 29 29 29 29 28 27 26 25 24 23 21 20 19 19 18 18 18 18 18 18 18 17 17 16 16 16 16 16 17 17 17
24 25 25 25 25 25 25 25 25 25 26 27 27 28 28 28 27 26 26 25 23 22 21 20 19 18 17 17 17 17 17 17 16 16 15 15 15 14 14 14 14 14 14 15
24 24 24 24 24 24 24 24 24 24 25 26 26 26 26 25 24 24 23 22 21 20 19 18 17 16 16 15 15 15 15 15 14 14 13 13 12 12 13 13 13 13 13 13
24 25 24 24 23 23 23 23 23 23 24 25 25 25 24 23 23 22 21 20 19 18 17 16 16 16 16 15 15 15 14 13 13 13 12 12 12 12 12 12 12 12 12 12
25 25 24 23 22 22 23 23 23 23 24 24 24 24 23 22 21 20 19 18 17 16 16 15 15 15 15 14 14 13 13 13 12 12 12 12 12 11 11 12 12 12 12 12
25 25 24 23 22 22 22 22 23 23 24 23 23 22 22 21 20 19 18 17 16 16 15 15 15 14 14 13 12 12 12 12 11 11 11 11 11 11 11 11 11 11 11 11
25 24 23 22 22 22 22 22 22 23 23 22 21 20 20 19 18 18 17 16 15 14 14 15 14 13 13 12 12 11 11 11 11 11 11 11 10 10 10 11 11 10 10 10
25 23 23 22 22 21 21 21 21 21 21 20 19 18 17 17 16 15 14 14 14 14 13 13 13 13 12 12 12 11 10 10 10 10 10 10 10 10 10 10 10 10 10 10
24 24 23 22 21 21 20 20 19 19 18 18 17 16 15 14 14 13 13 13 13 13 13 12 12 12 12 12 11 11 11 10 10 10 10 10 10 10 10 10 9 9 9 9
23 23 22 21 20 19 19 19 18 17 17 16 16 14 14 13 12 12 11 11 11 11 11 11 11 12 12 12 12 12 11 11 11 11 10 10 10 9 9 9 9 9 9 8
Wind_Direction
299 296 292 291 285 282 282 284 286 289 290 290 288 287 286 283 281 280 276 272 270 268 269 266 263 262 264 263 261 261 262 262 261 260 261 263 263 262 263 264 265 266 267 267
296 296 294 292 287 285 284 284 285 287 290 292 289 289 289 286 285 283 278 273 274 272 270 268 265 265 265 264 264 261 261 261 261 261 262 263 264 263 263 263 264 265 267 267
294 295 295 295 295 290 288 287 288 289 291 290 289 290 290 288 286 284 283 279 276 275 270 268 268 265 265 265 263 261 261 262 264 264 264 264 264 264 264 264 264 264 266 265
293 293 294 298 296 293 292 292 291 291 291 291 289 289 288 288 286 286 286 284 278 273 272 274 273 267 265 265 263 262 262 263 264 265 265 265 265 265 265 265 263 262 264 263
295 294 295 295 296 295 295 293 293 292 291 290 289 290 289 289 289 288 286 283 279 276 278 279 275 271 267 266 265 263 262 262 262 264 266 266 267 267 266 265 264 262 261 261
292 292 293 294 294 293 292 292 294 294 292 290 289 291 291 290 290 290 286 283 282 280 279 278 275 274 271 267 266 263 262 262 262 264 266 267 267 266 266 265 264 263 263 262
292 292 292 293 294 292 291 292 292 293 292 291 290 291 290 288 289 287 286 288 288 286 283 281 280 277 274 270 267 266 264 263 263 263 265 266 267 266 265 265 264 262 262 261
292 292 293 294 293 292 291 292 292 290 290 291 291 290 288 286 287 289 288 287 286 285 286 284 283 281 278 274 270 267 265 264 263 263 264 265 267 267 266 265 265 263 262 261
293 292 291 293 292 291 290 291 291 290 290 289 290 290 289 289 289 290 288 285 285 285 284 283 282 281 277 274 271 268 266 265 265 266 265 265 266 266 266 265 264 262 261 261
293 292 291 291 290 290 290 289 290 289 289 289 289 289 288 289 290 290 288 287 285 285 283 283 281 279 277 274 272 269 267 267 266 266 265 265 264 264 264 263 262 262 262 262
292 292 291 291 290 290 290 289 289 288 287 289 289 289 289 289 289 290 289 289 287 285 284 283 282 281 279 276 274 271 269 268 267 267 266 266 265 264 263 263 261 262 264 264
292 293 293 291 290 290 290 289 288 288 287 287 288 289 290 291 290 290 289 288 287 287 285 285 285 282 281 278 275 273 270 268 268 267 266 265 264 263 262 262 261 262 263 262
289 292 293 292 290 290 289 288 287 286 287 288 288 290 291 291 292 292 290 289 288 287 286 285 283 283 281 279 276 272 269 267 267 267 266 265 263 261 260 260 259 259 260 260
290 290 292 292 291 290 289 288 286 285 287 289 290 291 291 291 292 293 291 291 291 289 288 286 284 283 281 279 276 272 268 266 266 267 266 264 262 261 259 258 257 257 258 258
291 291 292 292 291 291 290 288 286 285 286 289 291 291 292 293 294 294 293 293 292 289 288 286 284 282 279 279 276 273 270 268 267 267 267 266 264 261 259 258 257 256 256 256
292 291 291 291 291 291 290 288 286 286 287 289 290 291 292 294 295 295 294 293 291 289 287 286 284 282 279 277 275 273 271 269 268 267 267 267 264 260 259 257 256 255 255 256
293 293 293 293 292 292 290 289 288 288 289 291 292 293 294 294 295 294 294 292 290 288 286 285 284 281 279 277 275 274 271 269 268 268 268 266 262 259 255 252 253 254 254 254
296 295 294 293 293 293 293 292 291 291 292 293 294 295 295 295 294 293 293 291 289 287 286 285 282 281 280 279 278 276 273 272 271 269 266 262 259 257 252 252 252 252 250 248
300 297 295 293 292 292 293 293 294 294 294 294 296 297 296 295 293 292 292 290 288 285 283 281 279 279 280 280 280 277 273 272 271 267 262 259 255 252 250 248 249 250 246 242
302 300 297 293 292 292 293 293 294 295 295 296 298 298 296 295 294 292 291 289 286 283 279 277 274 275 276 278 278 276 273 270 268 263 257 252 248 246 244 242 242 241 239 236
306 304 300 295 293 293 294 295 295 295 297 299 299 299 298 297 296 293 290 288 287 283 278 275 272 272 273 274 274 272 267 265 263 259 251 246 243 243 242 239 236 235 234 233
307 306 303 299 295 295 296 296 297 298 300 301 300 299 299 298 296 293 289 286 284 279 274 273 272 272 271 270 268 264 260 259 256 250 245 241 241 242 240 238 238 238 235 235
307 306 303 299 297 297 297 297 297 298 300 301 300 299 298 297 295 292 290 287 283 278 274 273 272 269 267 265 262 258 256 253 247 241 240 239 238 237 236 235 235 234 234 235
306 305 304 300 299 299 298 298 298 298 299 299 298 297 296 295 293 291 289 285 282 277 273 272 269 265 262 257 256 256 253 244 239 236 235 234 234 234 233 230 230 229 228 230
305 305 304 302 300 300 300 299 299 300 301 300 298 297 296 296 294 292 288 285 283 278 272 269 265 259 255 253 252 250 244 237 234 232 231 231 231 231 229 226 227 228 228 229
306 305 304 303 301 299 300 301 300 300 301 300 299 299 299 298 296 293 290 286 283 278 271 266 260 253 248 248 245 242 238 234 232 230 229 228 226 227 228 227 227 227 223 223
305 306 305 303 301 299 299 300 299 298 298 297 297 298 298 297 297 296 294 289 286 279 269 261 255 248 244 241 238 237 235 230 227 227 227 225 224 224 225 226 226 223 221 225
Height
5631 5628 5625 5623 5621 5619 5617 5615 5613 5612 5610 5609 5606 5603 5600 5598 5595 5593 5591 5590 5589 5588 5587 5587 5587 5588 5589 5589 5590 5592 5593 5595 5596 5597 5598 5599 5600 5601 5602 5603 5604 5605 5606 5608
5626 5623 5619 5617 5616 5613 5611 5609 5608 5606 5604 5603 5599 5596 5594 5591 5589 5587 5585 5583 5582 5580 5579 5579 5579 5580 5580 5581 5582 5583 5584 5585 5586 5587 5588 5589 5590 5590 5591 5592 5594 5595 5595 5596
5620 5617 5614 5612 5611 5608 5606 5604 5602 5600 5599 5596 5593 5590 5588 5585 5582 5580 5578 5577 5575 5573 5572 5571 5571 5572 5572 5573 5573 5574 5575 5576 5577 5578 5578 5579 5579 5580 5581 5582 5583 5584 5585 5586
5613 5612 5608 5610 5605 5603 5600 5598 5596 5594 5592 5589 5587 5584 5582 5579 5576 5574 5572 5570 5568 5567 5566 5564 5564 5563 5563 5564 5564 5565 5566 5567 5567 5568 5568 5569 5570 5570 5571 5572 5573 5573 5574 5575
5606 5603 5602 5602 5599 5596 5594 5592 5590 5587 5585 5583 5580 5578 5576 5573 5570 5567 5565 5563 5562 5560 5559 5557 5556 5556 5556 5556 5556 5556 5557 5558 5559 5559 5560 5560 5560 5561 5561 5562 5563 5563 5564 5565
5600 5597 5595 5596 5593 5589 5588 5586 5584 5581 5578 5576 5573 5572 5571 5567 5564 5561 5559 5557 5555 5553 5552 5551 5549 5548 5548 5548 5548 5548 5549 5549 5550 5551 5551 5551 5551 5552 5552 5553 5553 5554 5555 5555
5593 5590 5589 5588 5586 5583 5582 5580 5577 5574 5571 5569 5566 5565 5563 5560 5557 5555 5553 5551 5548 5547 5545 5544 5542 5541 5540 5540 5540 5541 5541 5541 5542 5542 5543 5543 5543 5543 5544 5544 5545 5546 5546 5547
5586 5584 5584 5581 5578 5576 5574 5571 5568 5566 5564 5562 5559 5557 5555 5553 5550 5548 5546 5544 5542 5541 5539 5537 5535 5534 5533 5532 5532 5532 5532 5533 5533 5534 5534 5534 5535 5535 5535 5535 5536 5537 5537 5538
5580 5579 5576 5573 5570 5568 5565 5563 5561 5559 5557 5554 5552 5549 5547 5545 5543 5541 5539 5537 5535 5533 5531 5530 5528 5526 5525 5524 5524 5524 5524 5524 5525 5525 5525 5525 5526 5526 5526 5527 5527 5527 5528 5529
5572 5571 5568 5565 5562 5560 5558 5555 5553 5551 5549 5546 5544 5542 5539 5538 5535 5533 5531 5529 5527 5525 5524 5522 5520 5518 5517 5516 5515 5515 5515 5515 5516 5516 5516 5517 5517 5517 5517 5517 5518 5518 5519 5520
5564 5563 5560 5557 5554 5552 5549 5547 5545 5543 5541 5539 5536 5534 5532 5530 5528 5526 5524 5522 5520 5517 5516 5514 5512 5510 5508 5507 5506 5505 5505 5506 5506 5507 5507 5507 5507 5508 5508 5508 5509 5509 5510 5511
5556 5554 5551 5549 5546 5544 5541 5539 5537 5535 5533 5531 5528 5526 5524 5522 5520 5518 5516 5514 5511 5509 5507 5505 5503 5501 5500 5498 5497 5496 5496 5496 5497 5497 5498 5498 5498 5499 5498 5499 5500 5500 5501 5502
5548 5545 5542 5540 5537 5535 5533 5530 5528 5526 5524 5522 5520 5518 5516 5514 5512 5509 5507 5505 5503 5500 5498 5496 5494 5492 5491 5489 5488 5488 5487 5487 5487 5488 5488 5488 5488 5489 5490 5490 5490 5491 5492 5493
5539 5536 5534 5531 5529 5526 5524 5522 5520 5518 5516 5514 5512 5510 5508 5506 5503 5501 5499 5496 5494 5492 5489 5487 5485 5484 5482 5480 5479 5479 5479 5479 5478 5479 5479 5479 5479 5480 5480 5481 5482 5483 5484 5485
5531 5528 5526 5523 5520 5518 5516 5514 5512 5510 5508 5506 5504 5502 5500 5497 5495 5493 5490 5488 5485 5483 5481 5478 5477 5475 5473 5472 5471 5470 5470 5470 5470 5470 5470 5470 5470 5471 5472 5473 5474 5475 5476 5477
5523 5520 5518 5515 5513 5510 5508 5506 5504 5502 5500 5498 5496 5494 5491 5489 5486 5484 5481 5479 5476 5474 5472 5470 5468 5467 5465 5464 5463 5463 5462 5462 5462 5462 5462 5462 5462 5463 5464 5465 5466 5467 5468 5469
5515 5512 5510 5508 5505 5503 5500 5498 5496 5494 5492 5490 5488 5485 5483 5480 5477 5474 5472 5469 5467 5465 5464 5462 5460 5459 5458 5457 5456 5456 5455 5455 5455 5455 5455 5455 5455 5456 5457 5458 5459 5460 5461 5461
5507 5504 5502 5499 5497 5494 5492 5490 5488 5486 5483 5481 5479 5476 5473 5470 5468 5465 5463 5461 5459 5457 5455 5454 5453 5452 5451 5450 5450 5449 5449 5449 5448 5448 5448 5448 5449 5449 5450 5451 5452 5453 5454 5455
5499 5496 5493 5491 5488 5486 5484 5482 5480 5477 5475 5472 5470 5467 5464 5461 5459 5456 5454 5452 5451 5449 5448 5447 5447 5446 5445 5444 5444 5443 5443 5442 5442 5442 5442 5443 5443 5444 5445 5446 5447 5448 5449 5450
5491 5488 5485 5483 5480 5478 5476 5474 5471 5469 5467 5464 5461 5459 5456 5453 5450 5448 5446 5444 5443 5442 5441 5441 5441 5440 5439 5439 5438 5437 5437 5437 5437 5437 5437 5438 5439 5440 5441 5442 5443 5444 5445 5446
5484 5481 5478 5475 5473 5471 5468 5466 5464 5462 5459 5456 5454 5451 5448 5446 5443 5441 5439 5438 5437 5436 5435 5435 5434 5434 5434 5433 5433 5432 5432 5432 5432 5433 5433 5434 5435 5436 5437 5438 5439 5440 5441 5442
5477 5474 5470 5468 5465 5463 5461 5459 5456 5454 5452 5449 5446 5443 5441 5438 5436 5434 5433 5432 5431 5430 5429 5429 5429 5428 5428 5428 5427 5427 5427 5428 5428 5429 5429 5430 5431 5432 5433 5434 5435 5436 5438 5439
5469 5466 5463 5460 5458 5456 5454 5452 5449 5447 5444 5442 5439 5436 5434 5432 5430 5428 5427 5426 5425 5424 5423 5423 5423 5423 5423 5422 5423 5423 5423 5424 5424 5425 5426 5427 5427 5428 5430 5431 5432 5433 5434 5435
5462 5459 5456 5454 5451 5449 5447 5444 5442 5440 5437 5435 5432 5430 5428 5425 5423 5422 5421 5420 5419 5418 5418 5418 5417 5417 5417 5418 5418 5419 5419 5420 5421 5421 5422 5423 5425 5426 5427 5428 5429 5430 5431 5432
5455 5452 5449 5447 5444 5442 5440 5437 5435 5433 5430 5428 5426 5424 5422 5420 5418 5416 5415 5414 5413 5413 5412 5412 5412 5412 5413 5413 5414 5415 5415 5416 5417 5418 5419 5420 5421 5423 5424 5425 5426 5427 5428 5430
5447 5445 5442 5440 5437 5435 5433 5431 5428 5426 5424 5422 5420 5418 5416 5414 5413 5411 5410 5409 5408 5407 5407 5407 5407 5407 5408 5409 5410 5411 5412 5413 5414 5415 5416 5417 5419 5420 5421 5422 5424 5425 5426 5427
5440 5437 5435 5433 5431 5429 5427 5425 5423 5421 5419 5417 5415 5413 5411 5410 5408 5407 5406 5404 5404 5403 5402 5402 5402 5403 5404 5405 5406 5407 5408 5410 5411 5412 5413 5415 5416 5417 5418 5420 5421 5422 5423 5424